EW0435 Weather Reports


Display with metric or nautical units.
time (UTC)temp
F
wind
direction
speed
MPH
gust
MPH
rain 1hr
in
rain 24hr
in
rain mn
in
humidity
%
barometer
mb
20260905133504 45 220 0.0 0.0 0.00 0.00 0.00 83 1021.2
20260905133004 45 219 0.0 1.0 0.00 0.00 0.00 85 1021.2
20260905132504 44 243 0.0 0.0 0.00 0.00 0.00 86 1021.1
20260905132005 44 243 0.0 0.0 0.00 0.00 0.00 86 1021.1
20260905131504 43 243 0.0 0.0 0.00 0.00 0.00 87 1021.0
20260905131004 42 243 0.0 0.0 0.00 0.00 0.00 87 1021.0
20260905130504 42 243 0.0 0.0 0.00 0.00 0.00 86 1021.0
20260905125504 43 243 0.0 0.0 0.00 0.00 0.00 87 1021.0
20260905125004 42 243 0.0 0.0 0.00 0.00 0.00 87 1020.9
20260905124004 42 243 0.0 0.0 0.00 0.00 0.00 86 1020.9
20260905123504 42 243 0.0 0.0 0.00 0.00 0.00 86 1020.9
20260905123004 42 305 0.0 0.0 0.00 0.00 0.00 86 1020.9
20260905122504 42 352 0.0 0.0 0.00 0.00 0.00 86 1020.9
20260905122004 42 355 0.0 0.0 0.00 0.00 0.00 86 1020.8
20260905120504 43 355 0.0 0.0 0.00 0.00 0.00 85 1020.8
20260905120004 43 355 0.0 0.0 0.00 0.00 0.00 83 1020.8
20260905115503 44 351 0.0 0.0 0.00 0.00 0.00 82 1020.8
20260905115004 44 351 0.0 0.0 0.00 0.00 0.00 83 1020.8
20260905114504 44 355 0.0 0.0 0.00 0.00 0.00 85 1020.8
20260905113504 43 355 0.0 0.0 0.00 0.00 0.00 84 1020.8
20260905113004 43 355 0.0 0.0 0.00 0.00 0.00 84 1020.7
20260905112004 44 355 0.0 0.0 0.00 0.00 0.00 84 1020.6
20260905111504 44 352 0.0 0.0 0.00 0.00 0.00 84 1020.6
20260905111004 44 0 0.0 0.0 0.00 0.00 0.00 84 1020.6
20260905110504 44 0 0.0 0.0 0.00 0.00 0.00 84 1020.5
20260905105504 44 355 0.0 0.0 0.00 0.00 0.00 84 1020.4
20260905105005 44 355 0.0 0.0 0.00 0.00 0.00 83 1020.4
20260905104503 44 355 0.0 0.0 0.00 0.00 0.00 81 1020.3
20260905104004 45 355 0.0 0.0 0.00 0.00 0.00 77 1020.3
20260905103504 47 338 0.0 0.0 0.00 0.00 0.00 74 1020.3
20260905102504 50 337 0.0 0.0 0.00 0.00 0.00 70 1020.2
20260905102005 50 259 0.0 0.0 0.00 0.00 0.00 71 1020.2
20260905101504 50 259 0.0 0.0 0.00 0.00 0.00 72 1020.2
20260905101004 49 259 0.0 0.0 0.00 0.00 0.00 73 1020.2
20260905100504 49 259 0.0 0.0 0.00 0.00 0.00 72 1020.2
20260905100004 50 259 0.0 0.0 0.00 0.00 0.00 72 1020.2
20260905095504 49 259 0.0 0.0 0.00 0.00 0.00 73 1020.2
20260905095004 49 259 0.0 0.0 0.00 0.00 0.00 73 1020.2
20260905094004 49 259 0.0 0.0 0.00 0.00 0.00 73 1020.1
20260905093503 49 259 0.0 0.0 0.00 0.00 0.00 74 1020.1
20260905093004 49 257 0.0 0.0 0.00 0.00 0.00 75 1020.1
20260905092504 48 257 0.0 0.0 0.00 0.00 0.00 78 1020.2
20260905092004 47 256 0.0 0.0 0.00 0.00 0.00 78 1020.2
20260905091503 47 255 0.0 0.0 0.00 0.00 0.00 78 1020.3
20260905091004 47 255 0.0 0.0 0.00 0.00 0.00 79 1020.2
20260905090504 47 255 0.0 0.0 0.00 0.00 0.00 78 1020.2
20260905090004 47 255 0.0 0.0 0.00 0.00 0.00 78 1020.2
20260905084503 48 254 0.0 0.0 0.00 0.00 0.00 78 1020.2
20260905084004 48 254 0.0 0.0 0.00 0.00 0.00 78 1020.2
20260905083504 48 254 0.0 0.0 0.00 0.00 0.00 79 1020.2
20260905083004 48 254 0.0 0.0 0.00 0.00 0.00 79 1020.2
20260905082503 48 254 0.0 0.0 0.00 0.00 0.00 78 1020.3
20260905082005 48 254 0.0 0.0 0.00 0.00 0.00 78 1020.2
20260905081504 48 253 0.0 0.0 0.00 0.00 0.00 78 1020.3
20260905081004 48 253 0.0 0.0 0.00 0.00 0.00 79 1020.3
20260905080504 48 252 0.0 0.0 0.00 0.00 0.00 79 1020.2
20260905075503 48 251 0.0 0.0 0.00 0.00 0.00 77 1020.3
20260905074504 48 250 0.0 0.0 0.00 0.00 0.00 76 1020.2
20260905074004 48 250 0.0 0.0 0.00 0.00 0.00 76 1020.2
20260905073004 48 250 0.0 0.0 0.00 0.00 0.00 77 1020.3
20260905072503 48 248 0.0 0.0 0.00 0.00 0.00 77 1020.4
20260905072004 47 227 0.0 0.0 0.00 0.00 0.00 77 1020.4
20260905071504 47 215 0.0 0.0 0.00 0.00 0.00 78 1020.4
20260905065503 48 92 0.0 0.0 0.00 0.00 0.00 76 1020.1
20260905065004 48 92 0.0 0.0 0.00 0.01 0.00 76 1020.2
20260905064504 48 92 0.0 0.0 0.00 0.02 0.00 74 1020.2
20260905064003 49 92 0.0 0.0 0.00 0.03 0.00 73 1020.1
20260905063503 49 92 0.0 0.0 0.00 0.04 0.00 73 1019.9
20260905063004 49 91 0.0 0.0 0.00 0.06 0.00 73 1019.9
20260905062504 50 91 0.0 0.0 0.00 0.07 0.00 73 1020.0
20260905062004 50 91 0.0 0.0 0.00 0.08 0.00 73 1020.0
20260905061004 49 91 0.0 0.0 0.00 0.09 0.00 74 1020.0
20260905060504 49 91 0.0 0.0 0.00 0.10 0.00 73 1019.9
20260905060004 49 91 0.0 0.0 0.00 0.11 0.00 75 1019.8
20260905055504 48 91 0.0 0.0 0.00 0.11 0.00 75 1019.7
20260905055004 48 91 0.0 0.0 0.00 0.12 0.00 75 1019.5
20260905054504 49 91 0.0 0.0 0.00 0.12 0.00 73 1019.6
20260905054004 50 91 0.0 0.0 0.00 0.13 0.00 73 1019.6
20260905053503 50 91 0.0 0.0 0.00 0.14 0.00 72 1019.6
20260905053004 49 91 0.0 0.0 0.00 0.15 0.00 73 1019.7
20260905052503 49 91 0.0 0.0 0.00 0.16 0.00 73 1019.7
20260905052004 50 91 0.0 0.0 0.00 0.16 0.00 71 1019.8
20260905051505 50 92 0.0 0.0 0.00 0.17 0.00 70 1019.8
20260905051004 51 92 0.0 0.0 0.00 0.18 0.00 71 1019.8
20260905050004 50 92 0.0 0.0 0.00 0.18 0.00 72 1019.9
20260905045504 50 92 0.0 0.0 0.00 0.19 0.00 72 1019.9
20260905045004 50 92 0.0 0.0 0.00 0.20 0.00 72 1020.0
20260905044504 50 93 0.0 0.0 0.00 0.20 0.00 71 1020.1
20260905044004 51 93 0.0 0.0 0.00 0.21 0.00 70 1020.1
20260905043504 52 93 0.0 0.0 0.00 0.22 0.00 68 1020.2
20260905043004 53 93 0.0 0.0 0.00 0.22 0.00 66 1020.2
20260905042504 53 93 0.0 0.0 0.00 0.22 0.00 66 1020.2
20260905042004 52 93 0.0 0.0 0.00 0.23 0.00 66 1020.3
20260905041503 52 93 0.0 0.0 0.00 0.23 0.00 66 1020.3
20260905041003 53 93 0.0 0.0 0.00 0.24 0.00 66 1020.4
20260905040503 53 93 0.0 0.0 0.00 0.24 0.00 66 1020.3
20260905040004 53 93 0.0 0.0 0.00 0.24 0.00 67 1020.3
20260905035503 53 93 0.0 0.0 0.00 0.25 0.00 67 1020.3
20260905035004 53 93 0.0 0.0 0.00 0.26 0.00 65 1020.3
20260905034004 53 93 0.0 0.0 0.00 0.26 0.00 63 1020.2
20260905033504 54 93 0.0 0.0 0.00 0.26 0.00 63 1020.2
20260905033004 54 93 0.0 0.0 0.00 0.27 0.00 63 1020.2
20260905032504 54 93 0.0 0.0 0.00 0.27 0.00 62 1020.1
20260905031504 54 93 0.0 0.0 0.00 0.27 0.00 62 1020.1
20260905031004 54 93 0.0 0.0 0.00 0.28 0.00 63 1020.1
20260905030504 54 94 0.0 0.0 0.00 0.28 0.00 61 1020.0
20260905030004 54 94 0.0 0.0 0.00 0.28 0.00 61 1020.0
20260905025504 55 94 0.0 0.0 0.00 0.29 0.00 59 1020.1
20260905024504 55 94 0.0 0.0 0.00 0.30 0.00 58 1020.0
20260905024004 56 94 0.0 0.0 0.00 0.30 0.00 57 1019.9
20260905022504 56 94 0.0 0.0 0.00 0.31 0.00 56 1019.8
20260905022005 56 94 0.0 0.0 0.00 0.32 0.00 56 1019.8
20260905021504 56 94 0.0 0.0 0.00 0.32 0.00 55 1019.7
20260905021004 57 94 0.0 0.0 0.00 0.32 0.00 57 1019.7
20260905020504 57 93 0.0 0.0 0.00 0.33 0.00 56 1019.6
20260905020005 57 92 0.0 0.0 0.00 0.33 0.00 55 1019.6
20260905015505 57 104 0.0 0.0 0.00 0.33 0.00 55 1019.6
20260905015004 57 103 0.0 0.0 0.00 0.33 0.00 55 1019.7
20260905014005 58 81 0.0 0.0 0.00 0.34 0.00 56 1019.7
20260905013504 58 80 0.0 0.0 0.00 0.35 0.00 54 1019.6
20260905013004 58 77 0.0 0.0 0.00 0.35 0.00 54 1019.7
20260905012504 58 78 0.0 0.0 0.00 0.35 0.00 52 1019.6
20260905012005 58 81 0.0 0.0 0.00 0.35 0.00 54 1019.6
20260905011004 58 76 0.0 1.0 0.00 0.36 0.00 52 1019.5
20260905010504 59 79 0.0 0.0 0.00 0.36 0.00 53 1019.4
20260905010004 59 59 0.0 1.0 0.00 0.36 0.00 52 1019.3
20260905005504 59 76 0.0 0.0 0.00 0.36 0.00 55 1019.4
20260905005004 59 65 0.0 1.0 0.00 0.36 0.00 54 1019.3
20260905004504 59 79 0.0 1.0 0.00 0.37 0.00 54 1019.3
20260905004004 59 51 0.0 2.0 0.00 0.37 0.00 53 1019.3
20260905003504 59 66 0.0 5.0 0.00 0.37 0.00 53 1019.3
20260905003004 59 68 0.0 5.0 0.00 0.37 0.00 53 1019.3
20260905002005 59 65 0.0 0.0 0.00 0.38 0.00 53 1019.4
20260905001004 60 51 0.0 2.0 0.00 0.38 0.00 54 1019.3
20260905000504 60 49 0.0 2.0 0.00 0.38 0.00 55 1019.2
20260905000003 60 63 1.0 3.0 0.00 0.38 0.00 55 1019.3
20260904235504 60 70 0.0 2.0 0.00 0.38 0.00 53 1019.2
20260904235004 59 76 0.0 0.0 0.00 0.38 0.00 53 1019.2
20260904234504 59 71 0.0 0.0 0.00 0.38 0.00 53 1019.2
20260904234004 59 71 0.0 0.0 0.00 0.38 0.00 53 1019.2
20260904233504 59 76 1.0 3.0 0.00 0.38 0.00 52 1019.1
20260904233003 60 63 0.0 2.0 0.00 0.38 0.00 53 1019.1
20260904232504 61 40 1.0 10.0 0.00 0.38 0.00 51 1019.1
20260904231504 62 39 0.0 0.0 0.00 0.38 0.00 49 1019.1
20260904231004 62 39 0.0 0.0 0.00 0.38 0.00 49 1019.1
20260904230504 61 344 0.0 0.0 0.00 0.38 0.00 50 1019.1
20260904230004 61 33 0.0 0.0 0.00 0.38 0.00 50 1019.0
20260904225504 61 79 0.0 2.0 0.00 0.38 0.00 51 1019.1
20260904225004 61 81 0.0 1.0 0.00 0.38 0.00 51 1019.1
20260904224504 60 75 0.0 1.0 0.00 0.38 0.00 52 1019.2
20260904223504 62 79 0.0 0.0 0.00 0.38 0.00 50 1019.1
20260904223004 62 86 0.0 0.0 0.00 0.38 0.00 54 1019.2
20260904222504 61 70 0.0 0.0 0.00 0.38 0.00 51 1019.2
20260904222004 62 66 0.0 0.0 0.00 0.38 0.00 50 1019.1
20260904221504 63 77 0.0 1.0 0.00 0.38 0.00 49 1019.1
20260904220004 62 39 0.0 2.0 0.00 0.38 0.00 50 1019.0
20260904215004 62 62 0.0 1.0 0.00 0.38 0.00 53 1018.9
20260904214504 61 60 0.0 2.0 0.00 0.38 0.00 54 1019.0
20260904214004 61 47 0.0 0.0 0.00 0.38 0.00 54 1019.0
20260904213503 60 55 0.0 2.0 0.00 0.38 0.00 53 1019.1
20260904213005 60 35 0.0 1.0 0.00 0.38 0.00 56 1019.1
20260904212004 60 54 0.0 2.0 0.00 0.38 0.00 55 1018.9
20260904211503 60 72 0.0 0.0 0.00 0.38 0.00 57 1018.9
20260904211004 59 38 0.0 0.0 0.00 0.38 0.00 56 1018.9
20260904210004 59 90 0.0 1.0 0.00 0.38 0.00 54 1019.0
20260904205004 59 107 0.0 0.0 0.00 0.38 0.00 55 1019.0
20260904204503 58 120 0.0 0.0 0.00 0.38 0.00 54 1019.0
20260904204004 57 156 0.0 0.0 0.00 0.38 0.00 57 1019.1
20260904203503 58 176 0.0 2.0 0.00 0.38 0.00 53 1019.0
20260904202004 57 91 0.0 0.0 0.00 0.38 0.00 53 1018.9
20260904201004 58 88 0.0 0.0 0.00 0.38 0.00 56 1018.9
20260904200003 57 146 0.0 2.0 0.00 0.38 0.00 55 1019.0
20260904195505 57 109 0.0 3.0 0.00 0.38 0.00 57 1019.0
20260904195004 57 144 0.0 3.0 0.00 0.38 0.00 57 1019.0
20260904194504 57 132 0.0 1.0 0.00 0.38 0.00 60 1019.0
20260904194004 58 136 1.0 3.0 0.00 0.38 0.00 57 1019.0
20260904193503 58 171 0.0 3.0 0.00 0.38 0.00 56 1019.1
20260904193004 57 129 1.0 3.0 0.00 0.38 0.00 60 1019.1
20260904192504 57 128 0.0 3.0 0.00 0.38 0.00 60 1019.2
20260904192004 57 152 0.0 2.0 0.00 0.38 0.00 61 1019.2
20260904191504 56 158 0.0 3.0 0.00 0.38 0.00 62 1019.2
20260904190504 56 150 1.0 7.0 0.00 0.38 0.00 64 1019.2
20260904190004 55 132 0.0 2.0 0.00 0.38 0.00 64 1019.2
20260904185504 55 117 0.0 1.0 0.00 0.38 0.00 64 1019.2
20260904185004 55 205 0.0 0.0 0.00 0.38 0.00 62 1019.2
20260904184503 55 162 0.0 3.0 0.00 0.38 0.00 63 1019.2
20260904184004 54 72 0.0 0.0 0.00 0.38 0.00 66 1019.1
20260904183504 54 121 0.0 0.0 0.00 0.38 0.00 65 1019.2
20260904183004 54 95 0.0 0.0 0.00 0.38 0.00 66 1019.2
20260904182504 54 110 0.0 0.0 0.00 0.38 0.00 67 1019.2
20260904182004 54 108 0.0 1.0 0.00 0.38 0.00 67 1019.2
20260904181504 54 118 0.0 0.0 0.00 0.38 0.00 64 1019.2
20260904181005 54 130 0.0 0.0 0.00 0.38 0.00 64 1019.2
20260904180504 54 125 0.0 0.0 0.00 0.38 0.00 66 1019.2
20260904180004 55 126 0.0 0.0 0.00 0.38 0.00 62 1019.2
20260904175504 56 100 0.0 0.0 0.00 0.38 0.00 65 1019.1
20260904175004 57 73 0.0 0.0 0.00 0.38 0.00 61 1019.0
20260904174504 58 72 0.0 0.0 0.00 0.38 0.00 59 1019.1
20260904174004 59 71 0.0 0.0 0.00 0.38 0.00 58 1019.0
20260904173504 59 71 0.0 0.0 0.00 0.38 0.00 60 1019.0
20260904173004 59 107 0.0 0.0 0.00 0.38 0.00 60 1019.0
20260904172004 57 136 0.0 0.0 0.00 0.38 0.00 63 1019.0
20260904171504 56 141 0.0 0.0 0.00 0.38 0.00 65 1018.9
20260904171005 55 146 0.0 0.0 0.00 0.38 0.00 65 1019.0
20260904170504 56 119 0.0 0.0 0.00 0.38 0.00 63 1018.9
20260904165504 55 99 0.0 0.0 0.00 0.38 0.00 66 1018.9
20260904165004 55 345 0.0 0.0 0.00 0.38 0.00 63 1018.8
20260904164503 56 310 0.0 0.0 0.00 0.38 0.00 62 1018.8
20260904164004 57 288 0.0 0.0 0.00 0.38 0.00 64 1018.8
20260904163504 56 287 0.0 0.0 0.00 0.38 0.00 66 1018.8
20260904163004 54 284 0.0 0.0 0.00 0.38 0.00 69 1018.7
20260904162504 52 228 0.0 0.0 0.00 0.38 0.00 74 1018.7
20260904162004 52 227 0.0 0.0 0.00 0.38 0.00 70 1018.6
20260904161504 52 229 0.0 0.0 0.00 0.38 0.00 73 1018.6
20260904161004 51 228 0.0 0.0 0.00 0.38 0.00 73 1018.6
20260904155504 50 254 0.0 1.0 0.00 0.38 0.00 76 1018.5
20260904154505 50 250 0.0 0.0 0.00 0.38 0.00 78 1018.4
20260904154004 50 250 0.0 0.0 0.00 0.38 0.00 78 1018.4
20260904153504 49 250 0.0 0.0 0.00 0.38 0.00 78 1018.3
20260904153004 49 250 0.0 0.0 0.00 0.38 0.00 80 1018.4
20260904152504 48 251 0.0 0.0 0.00 0.39 0.00 81 1018.4
20260904152004 48 250 0.0 0.0 0.00 0.39 0.00 83 1018.3
20260904151504 47 250 0.0 0.0 0.00 0.39 0.00 84 1018.2
20260904151003 47 240 0.0 0.0 0.00 0.39 0.00 84 1018.1
20260904150504 46 244 0.0 0.0 0.00 0.39 0.00 85 1018.2
20260904150004 45 247 0.0 0.0 0.00 0.39 0.00 85 1018.1
20260904145004 44 239 0.0 0.0 0.00 0.40 0.00 87 1018.1
20260904144504 43 239 0.0 0.0 0.00 0.40 0.00 87 1018.1
20260904144003 43 238 0.0 0.0 0.00 0.40 0.00 87 1018.0
20260904143503 43 233 0.0 0.0 0.00 0.40 0.00 87 1017.9
20260904143004 43 227 0.0 0.0 0.00 0.40 0.00 87 1017.9
20260904142503 43 197 0.0 0.0 0.00 0.40 0.00 87 1017.8
20260904142004 43 197 0.0 0.0 0.00 0.40 0.00 87 1017.8
20260904141504 43 197 0.0 0.0 0.00 0.40 0.00 87 1017.7
20260904141004 43 197 0.0 0.0 0.00 0.40 0.00 87 1017.6
20260904140504 43 197 0.0 0.0 0.00 0.40 0.00 88 1017.4
20260904135004 42 196 0.0 0.0 0.00 0.40 0.00 89 1017.4
20260904134503 42 196 0.0 0.0 0.00 0.40 0.00 89 1017.3
20260904134004 42 182 0.0 0.0 0.00 0.40 0.00 90 1017.4